FW9262 Weather Reports


Display with metric or nautical units.
time (UTC)temp
F
wind
direction
speed
MPH
gust
MPH
rain 1hr
in
rain 24hr
in
rain mn
in
humidity
%
barometer
mb
20260508222649 69 326 1.0 6.0 0.00 0.00 0.00 72 1016.6
20260508222147 69 318 3.0 7.0 0.00 0.00 0.00 73 1016.6
20260508221642 70 19 4.0 4.0 0.00 0.00 0.00 70 1017.0
20260508221138 71 328 1.0 3.0 0.00 0.00 0.00 69 1016.6
20260508220635 70 329 1.0 4.0 0.00 0.00 0.00 71 1017.0
20260508220132 71 322 2.0 6.0 0.00 0.00 0.00 71 1017.0
20260508215628 69 243 2.0 6.0 0.00 0.00 0.00 73 1017.0
20260508215125 70 271 3.0 7.0 0.00 0.00 0.00 71 1017.0
20260508214622 71 276 4.0 7.0 0.00 0.00 0.00 69 1017.3
20260508214119 69 306 3.0 4.0 0.00 0.00 0.00 72 1017.3
20260508213616 70 301 1.0 6.0 0.00 0.00 0.00 72 1017.3
20260508213112 70 317 1.0 2.0 0.00 0.00 0.00 71 1017.3
20260508212609 70 247 3.0 6.0 0.00 0.00 0.00 71 1017.3
20260508212105 70 238 4.0 6.0 0.00 0.00 0.00 71 1017.3
20260508211600 72 244 3.0 3.0 0.00 0.00 0.00 68 1017.3
20260508211057 72 344 0.0 3.0 0.00 0.00 0.00 69 1017.3
20260508210554 71 313 2.0 3.0 0.00 0.00 0.00 70 1017.6
20260508210051 71 299 2.0 6.0 0.00 0.00 0.00 69 1017.6
20260508205548 70 334 1.0 4.0 0.00 0.00 0.00 72 1017.6
20260508205044 70 309 5.0 8.0 0.00 0.00 0.00 71 1017.6
20260508204541 70 298 3.0 7.0 0.00 0.00 0.00 71 1017.6
20260508204037 69 326 1.0 7.0 0.00 0.00 0.00 75 1017.6
20260508203533 69 294 2.0 4.0 0.00 0.00 0.00 74 1018.0
20260508203029 69 340 3.0 4.0 0.00 0.00 0.00 73 1017.6
20260508202526 68 270 4.0 7.0 0.00 0.00 0.00 75 1018.0
20260508202023 69 323 2.0 7.0 0.00 0.00 0.00 73 1018.0
20260508201520 69 238 2.0 4.0 0.00 0.00 0.00 74 1018.0
20260508201016 68 221 4.0 7.0 0.00 0.00 0.00 74 1018.0
20260508200514 69 215 2.0 6.0 0.00 0.00 0.00 74 1018.0
20260508200009 69 269 3.0 4.0 0.00 0.00 0.00 74 1018.0
20260508195506 70 227 4.0 8.0 0.00 0.00 0.00 72 1018.3
20260508195003 69 267 4.0 8.0 0.00 0.00 0.00 75 1018.3
20260508194500 69 284 3.0 7.0 0.00 0.00 0.00 74 1018.3
20260508193957 68 276 3.0 6.0 0.00 0.00 0.00 75 1018.0
20260508193453 69 212 2.0 6.0 0.00 0.00 0.00 74 1018.3
20260508192949 69 240 2.0 4.0 0.00 0.00 0.00 73 1018.3
20260508192446 68 358 2.0 3.0 0.00 0.00 0.00 74 1018.3
20260508191943 68 279 3.0 4.0 0.00 0.00 0.00 75 1018.3
20260508191441 68 300 1.0 3.0 0.00 0.00 0.00 77 1018.7
20260508190937 67 191 3.0 4.0 0.00 0.00 0.00 77 1018.7
20260508190435 67 307 2.0 3.0 0.00 0.00 0.00 77 1018.7
20260508185931 66 237 2.0 6.0 0.00 0.00 0.00 79 1018.7
20260508185428 66 291 2.0 3.0 0.00 0.00 0.00 79 1018.7
20260508184925 66 258 3.0 4.0 0.00 0.00 0.00 79 1018.7
20260508184423 65 227 2.0 4.0 0.00 0.00 0.00 81 1018.7
20260508183919 66 258 3.0 6.0 0.00 0.00 0.00 79 1018.7
20260508183416 65 187 1.0 3.0 0.00 0.00 0.00 81 1019.0
20260508182911 65 212 2.0 4.0 0.00 0.00 0.00 81 1019.0
20260508182409 65 273 3.0 6.0 0.00 0.00 0.00 81 1018.7
20260508181904 65 260 3.0 7.0 0.00 0.00 0.00 81 1018.7
20260508181401 65 189 2.0 6.0 0.00 0.00 0.00 81 1018.7
20260508180858 66 266 2.0 3.0 0.00 0.00 0.00 80 1018.7
20260508180355 65 308 1.0 3.0 0.00 0.00 0.00 81 1019.0
20260508175850 65 324 1.0 4.0 0.00 0.00 0.00 81 1019.0
20260508175348 66 332 1.0 3.0 0.00 0.00 0.00 81 1019.0
20260508174846 65 252 1.0 3.0 0.00 0.00 0.00 81 1018.7
20260508174343 65 325 1.0 2.0 0.00 0.00 0.00 81 1019.0
20260508173839 65 314 1.0 2.0 0.00 0.00 0.00 80 1019.0
20260508173336 65 249 1.0 2.0 0.00 0.00 0.00 81 1019.0
20260508172832 66 205 3.0 3.0 0.00 0.00 0.00 80 1019.0
20260508172330 66 101 2.0 2.0 0.00 0.00 0.00 78 1019.0
20260508171826 65 346 0.0 1.0 0.00 0.00 0.00 79 1019.3
20260508171322 65 13 0.0 1.0 0.00 0.00 0.00 79 1019.3
20260508170819 65 337 0.0 0.0 0.00 0.00 0.00 79 1019.0
20260508170318 65 322 2.0 2.0 0.00 0.00 0.00 79 1019.3
20260508165814 66 358 0.0 0.0 0.00 0.00 0.00 79 1019.3
20260508165311 65 345 0.0 0.0 0.00 0.00 0.00 79 1019.0
20260508164807 65 348 0.0 0.0 0.00 0.00 0.00 81 1019.0
20260508164304 64 339 0.0 0.0 0.00 0.00 0.00 81 1019.0
20260508163802 64 6 1.0 2.0 0.00 0.00 0.00 81 1019.0
20260508163259 64 351 0.0 2.0 0.00 0.00 0.00 81 1019.0
20260508162755 64 350 0.0 1.0 0.00 0.00 0.00 82 1018.7
20260508162252 64 17 1.0 2.0 0.00 0.00 0.00 81 1019.0
20260508161749 64 352 0.0 0.0 0.00 0.00 0.00 82 1018.7
20260508161246 63 352 0.0 0.0 0.00 0.00 0.00 82 1019.0
20260508160744 63 345 0.0 0.0 0.00 0.00 0.00 83 1018.7
20260508160242 63 26 1.0 3.0 0.00 0.00 0.00 83 1019.0
20260508155738 63 347 0.0 1.0 0.00 0.00 0.00 83 1019.0
20260508155235 63 339 0.0 0.0 0.00 0.00 0.00 83 1019.0
20260508154732 63 354 0.0 0.0 0.00 0.00 0.00 83 1019.0
20260508154230 63 352 0.0 0.0 0.00 0.00 0.00 83 1019.0
20260508153726 62 10 0.0 0.0 0.00 0.00 0.00 84 1019.0
20260508153223 62 22 0.0 1.0 0.00 0.00 0.00 84 1018.7
20260508152720 62 49 1.0 2.0 0.00 0.00 0.00 84 1019.0
20260508152215 62 354 1.0 3.0 0.00 0.00 0.00 84 1019.3
20260508151712 62 342 0.0 1.0 0.00 0.00 0.00 85 1019.0
20260508151209 62 349 0.0 1.0 0.00 0.00 0.00 85 1019.0
20260508150706 62 8 3.0 4.0 0.00 0.00 0.00 85 1019.0
20260508150202 62 352 0.0 4.0 0.00 0.00 0.00 85 1019.0
20260508145658 62 76 0.0 1.0 0.00 0.00 0.00 85 1019.0
20260508145154 62 14 0.0 2.0 0.00 0.00 0.00 85 1018.7
20260508144652 62 354 1.0 3.0 0.00 0.00 0.00 85 1019.0
20260508144149 62 61 1.0 3.0 0.00 0.00 0.00 86 1018.7
20260508143647 62 74 1.0 2.0 0.00 0.00 0.00 86 1019.3
20260508143144 61 352 1.0 3.0 0.00 0.00 0.00 86 1019.0
20260508142640 61 348 0.0 1.0 0.00 0.00 0.00 86 1019.0
20260508142137 61 1 0.0 2.0 0.00 0.00 0.00 86 1019.3
20260508141633 61 353 0.0 2.0 0.00 0.00 0.00 86 1019.0
20260508141131 61 56 0.0 1.0 0.00 0.00 0.00 86 1019.0
20260508140628 61 352 0.0 1.0 0.00 0.00 0.00 86 1019.0
20260508140125 61 350 0.0 0.0 0.00 0.00 0.00 86 1019.0
20260508135620 61 349 0.0 0.0 0.00 0.00 0.00 87 1019.0
20260508135116 61 26 0.0 1.0 0.00 0.00 0.00 86 1018.7
20260508134614 61 18 0.0 1.0 0.00 0.00 0.00 86 1019.0
20260508134111 61 340 0.0 1.0 0.00 0.00 0.00 86 1019.0
20260508133607 61 330 0.0 1.0 0.00 0.00 0.00 86 1018.7
20260508133105 61 60 1.0 2.0 0.00 0.00 0.00 86 1018.7
20260508132603 61 53 1.0 1.0 0.00 0.00 0.00 86 1018.7
20260508132059 61 24 0.0 0.0 0.00 0.00 0.00 86 1018.7
20260508131555 61 74 1.0 2.0 0.00 0.00 0.00 86 1018.7
20260508131052 61 2 0.0 3.0 0.00 0.00 0.00 86 1018.7
20260508130548 61 22 0.0 2.0 0.00 0.00 0.00 86 1018.7
20260508130045 61 351 0.0 0.0 0.00 0.00 0.00 86 1018.7
20260508125540 61 357 0.0 1.0 0.00 0.00 0.00 86 1018.7
20260508125038 61 358 0.0 1.0 0.00 0.00 0.00 86 1018.3
20260508124536 61 75 1.0 2.0 0.00 0.00 0.00 86 1018.0
20260508124033 61 359 0.0 0.0 0.00 0.00 0.00 86 1018.3
20260508123532 61 73 1.0 2.0 0.00 0.00 0.00 86 1018.3
20260508123028 61 77 0.0 1.0 0.00 0.00 0.00 86 1018.3
20260508122525 61 357 0.0 0.0 0.00 0.00 0.00 87 1018.3
20260508122022 61 358 0.0 0.0 0.00 0.00 0.00 87 1018.0
20260508121520 61 43 0.0 1.0 0.00 0.00 0.00 86 1018.3
20260508121018 61 36 2.0 3.0 0.00 0.00 0.00 86 1018.0
20260508120515 62 1 0.0 1.0 0.00 0.00 0.00 86 1018.0
20260508120013 62 4 1.0 2.0 0.00 0.00 0.00 87 1018.3
20260508115510 62 10 1.0 2.0 0.00 0.00 0.00 87 1018.3
20260508115006 62 1 0.0 2.0 0.00 0.00 0.00 87 1018.0
20260508114504 61 49 1.0 3.0 0.00 0.00 0.00 87 1018.0
20260508114000 61 27 0.0 0.0 0.00 0.00 0.00 87 1018.0
20260508113458 61 16 0.0 1.0 0.00 0.00 0.00 87 1018.3
20260508112955 61 0 0.0 2.0 0.00 0.00 0.00 87 1018.0
20260508112451 61 20 2.0 3.0 0.00 0.00 0.00 87 1018.0
20260508111948 61 0 0.0 1.0 0.00 0.00 0.00 88 1018.0
20260508111445 61 27 1.0 2.0 0.00 0.00 0.00 88 1017.6
20260508110942 61 6 0.0 1.0 0.00 0.00 0.00 88 1017.6
20260508110440 61 354 0.0 0.0 0.00 0.00 0.00 88 1018.0
20260508105939 61 348 0.0 0.0 0.00 0.00 0.00 88 1018.0
20260508105436 61 352 0.0 0.0 0.00 0.00 0.00 88 1018.0
20260508104933 61 6 0.0 0.0 0.00 0.00 0.00 88 1018.0
20260508104431 61 26 1.0 1.0 0.00 0.00 0.00 88 1018.0
20260508103927 61 1 0.0 1.0 0.00 0.00 0.00 88 1018.0
20260508103424 61 359 0.0 1.0 0.00 0.00 0.00 88 1017.6
20260508102921 61 359 0.0 2.0 0.00 0.00 0.00 88 1017.6
20260508102420 61 12 1.0 3.0 0.00 0.00 0.00 88 1018.0
20260508101917 61 356 0.0 0.0 0.00 0.00 0.00 88 1018.0
20260508101414 61 358 0.0 0.0 0.00 0.00 0.00 89 1018.0
20260508100911 61 1 0.0 1.0 0.00 0.00 0.00 89 1017.6
20260508100410 61 9 0.0 1.0 0.00 0.00 0.00 89 1017.6
20260508095905 61 1 0.0 1.0 0.00 0.00 0.00 89 1017.6
20260508095403 61 10 0.0 0.0 0.00 0.00 0.00 89 1018.0
20260508094900 61 354 0.0 0.0 0.00 0.00 0.00 90 1018.0
20260508094356 60 347 0.0 2.0 0.00 0.00 0.00 90 1018.3
20260508093853 60 28 0.0 2.0 0.00 0.00 0.00 90 1018.3
20260508093351 60 339 0.0 0.0 0.00 0.00 0.00 90 1018.3
20260508092848 60 338 0.0 0.0 0.00 0.00 0.00 90 1018.0
20260508092346 60 334 0.0 0.0 0.00 0.00 0.00 91 1018.0
20260508091844 60 338 0.0 0.0 0.00 0.00 0.00 91 1018.0
20260508091340 60 335 0.0 0.0 0.00 0.00 0.00 91 1018.0
20260508090838 60 335 0.0 0.0 0.00 0.00 0.00 91 1018.0
20260508090337 60 335 0.0 0.0 0.00 0.00 0.00 91 1018.3
20260508085832 60 336 0.0 0.0 0.00 0.00 0.00 91 1018.7
20260508085329 60 336 0.0 0.0 0.00 0.00 0.00 91 1018.3
20260508084825 60 336 0.0 0.0 0.00 0.00 0.00 91 1018.3
20260508084322 60 338 0.0 0.0 0.00 0.00 0.00 90 1018.7
20260508083820 60 338 0.0 0.0 0.00 0.00 0.00 90 1018.3
20260508083317 60 335 0.0 0.0 0.00 0.00 0.00 90 1018.3
20260508082816 60 334 0.0 0.0 0.00 0.00 0.00 90 1018.3
20260508082315 60 337 0.0 0.0 0.00 0.00 0.00 90 1018.7
20260508081812 60 338 0.0 0.0 0.00 0.00 0.00 90 1018.3
20260508081308 60 336 0.0 0.0 0.00 0.00 0.00 90 1018.7
20260508080806 60 329 0.0 0.0 0.00 0.00 0.00 90 1018.7
20260508080304 60 333 0.0 0.0 0.00 0.00 0.00 89 1018.7
20260508075800 60 326 0.0 1.0 0.00 0.00 0.00 90 1018.7
20260508075257 61 317 1.0 1.0 0.00 0.00 0.00 90 1018.7
20260508074755 61 337 0.0 0.0 0.00 0.00 0.00 90 1018.7
20260508074251 61 322 1.0 1.0 0.00 0.00 0.00 90 1018.7
20260508073749 61 339 0.0 1.0 0.00 0.00 0.00 90 1018.7
20260508073247 61 318 0.0 1.0 0.00 0.00 0.00 90 1018.7
20260508072742 61 328 1.0 1.0 0.00 0.00 0.00 90 1019.0
20260508072239 61 333 1.0 1.0 0.00 0.00 0.00 90 1018.7
20260508071737 61 352 0.0 0.0 0.00 0.00 0.00 90 1019.0
20260508071235 60 343 0.0 0.0 0.00 0.00 0.00 90 1018.7
20260508070732 61 304 0.0 1.0 0.00 0.00 0.00 90 1018.7
20260508070231 61 345 1.0 1.0 0.00 0.00 0.00 90 1018.7
20260508065727 61 327 0.0 2.0 0.00 0.00 0.00 90 1018.7
20260508065225 61 3 0.0 1.0 0.00 0.00 0.00 90 1018.7
20260508064723 61 243 2.0 2.0 0.00 0.00 0.00 89 1018.7
20260508064221 61 11 0.0 1.0 0.00 0.00 0.00 89 1018.7
20260508063718 61 339 0.0 0.0 0.00 0.00 0.00 89 1018.7
20260508063216 61 325 0.0 3.0 0.00 0.00 0.00 89 1018.7
20260508062713 61 274 0.0 1.0 0.00 0.00 0.00 89 1018.7
20260508062210 61 312 1.0 2.0 0.00 0.00 0.00 89 1018.7
20260508061707 61 329 1.0 2.0 0.00 0.00 0.00 89 1018.7
20260508061204 61 297 2.0 2.0 0.00 0.00 0.00 89 1018.7
20260508060702 61 316 0.0 0.0 0.00 0.00 0.00 90 1018.3
20260508060158 61 313 0.0 0.0 0.00 0.00 0.00 90 1018.3
20260508055654 61 338 0.0 0.0 0.00 0.00 0.00 90 1018.3
20260508055151 61 0 0.0 1.0 0.00 0.00 0.00 90 1018.3
20260508054647 61 309 0.0 0.0 0.00 0.00 0.00 90 1018.3
20260508054145 61 336 0.0 0.0 0.00 0.00 0.00 90 1018.7
20260508053642 61 329 0.0 0.0 0.00 0.00 0.00 90 1018.7
20260508053139 61 339 0.0 0.0 0.00 0.00 0.00 90 1018.7
20260508052636 61 326 0.0 1.0 0.00 0.00 0.00 90 1018.3
20260508052133 61 338 0.0 0.0 0.00 0.00 0.00 90 1018.3
20260508051629 60 343 0.0 1.0 0.00 0.00 0.00 90 1018.7
20260508051125 60 309 0.0 1.0 0.00 0.00 0.00 91 1018.7
20260508050621 60 319 0.0 1.0 0.00 0.00 0.00 90 1018.7
20260508050119 60 334 0.0 2.0 0.00 0.00 0.00 90 1018.7
20260508045615 60 341 0.0 1.0 0.00 0.00 0.00 90 1018.7
20260508045113 60 342 0.0 1.0 0.00 0.00 0.00 90 1018.3
20260508044610 60 328 0.0 1.0 0.00 0.00 0.00 90 1018.3
20260508044106 60 310 0.0 1.0 0.00 0.00 0.00 90 1018.3
20260508043602 60 313 1.0 1.0 0.00 0.00 0.00 90 1018.0
20260508043100 60 320 0.0 0.0 0.00 0.00 0.00 91 1018.0
20260508042557 60 328 0.0 0.0 0.00 0.00 0.00 91 1018.0
20260508042054 60 335 0.0 2.0 0.00 0.00 0.00 91 1018.3
20260508041550 60 299 1.0 1.0 0.00 0.00 0.00 91 1017.6
20260508041047 60 276 2.0 2.0 0.00 0.00 0.00 91 1017.6
20260508040543 60 319 1.0 1.0 0.00 0.00 0.00 91 1017.6
20260508040042 60 348 0.0 2.0 0.00 0.00 0.00 91 1017.6
20260508035538 60 309 0.0 2.0 0.00 0.00 0.00 91 1017.6
20260508035035 60 339 0.0 2.0 0.00 0.00 0.00 91 1017.6
20260508034532 60 231 1.0 1.0 0.00 0.00 0.00 91 1017.6
20260508034029 60 270 2.0 2.0 0.00 0.00 0.00 91 1017.6
20260508033527 60 324 2.0 2.0 0.00 0.00 0.00 91 1017.3
20260508033025 60 267 1.0 3.0 0.00 0.00 0.00 91 1017.3
20260508032521 60 317 2.0 4.0 0.00 0.00 0.00 91 1017.3
20260508032019 60 12 1.0 4.0 0.00 0.00 0.00 90 1017.3
20260508031516 60 306 1.0 3.0 0.00 0.00 0.00 90 1017.0
20260508031011 60 289 2.0 3.0 0.00 0.00 0.00 90 1017.3
20260508030508 60 255 3.0 6.0 0.00 0.00 0.00 90 1017.0
20260508030007 60 248 3.0 3.0 0.00 0.00 0.00 89 1017.0
20260508025502 60 295 2.0 2.0 0.00 0.00 0.00 89 1017.0
20260508024959 60 246 1.0 2.0 0.00 0.00 0.00 89 1017.0
20260508024455 61 253 3.0 6.0 0.00 0.00 0.00 88 1017.0
20260508023952 61 203 2.0 3.0 0.00 0.00 0.00 88 1016.6
20260508023449 61 238 2.0 6.0 0.00 0.00 0.00 87 1017.0
20260508022946 61 233 2.0 4.0 0.00 0.00 0.00 86 1017.0
20260508022442 61 261 2.0 3.0 0.00 0.00 0.00 86 1016.6
20260508021938 62 334 1.0 4.0 0.00 0.00 0.00 85 1016.6
20260508021435 62 286 1.0 4.0 0.00 0.00 0.00 84 1016.6
20260508020931 62 198 2.0 3.0 0.00 0.00 0.00 83 1016.6
20260508020429 62 282 3.0 4.0 0.00 0.00 0.00 82 1016.6
20260508015926 62 299 2.0 4.0 0.00 0.00 0.00 82 1016.3
20260508015424 62 281 4.0 7.0 0.00 0.00 0.00 83 1016.6
20260508014920 62 288 2.0 6.0 0.00 0.00 0.00 83 1016.3
20260508014417 63 302 2.0 7.0 0.00 0.00 0.00 82 1016.3
20260508013912 63 279 2.0 6.0 0.00 0.00 0.00 82 1016.6
20260508013408 63 273 2.0 6.0 0.00 0.00 0.00 82 1016.3
20260508012906 63 349 3.0 7.0 0.00 0.00 0.00 82 1016.6
20260508012403 63 312 2.0 6.0 0.00 0.00 0.00 82 1016.3
20260508011901 63 354 2.0 2.0 0.00 0.00 0.00 81 1016.3
20260508011359 63 250 4.0 6.0 0.00 0.00 0.00 82 1016.6
20260508010855 64 224 3.0 4.0 0.00 0.00 0.00 81 1016.6
20260508010353 64 243 2.0 8.0 0.00 0.00 0.00 80 1016.6
20260508005850 64 260 2.0 4.0 0.00 0.00 0.00 79 1016.3
20260508005346 64 327 1.0 2.0 0.00 0.00 0.00 78 1016.6
20260508004843 64 227 4.0 6.0 0.00 0.00 0.00 78 1016.3
20260508004339 65 229 3.0 10.0 0.00 0.00 0.00 78 1016.3
20260508003835 65 255 6.0 7.0 0.00 0.00 0.00 78 1016.3
20260508003333 65 330 2.0 4.0 0.00 0.00 0.00 78 1016.3
20260508002830 65 261 4.0 7.0 0.00 0.00 0.00 76 1016.3
20260508002326 66 244 4.0 4.0 0.00 0.00 0.00 75 1016.6
20260508001823 66 326 1.0 4.0 0.00 0.00 0.00 75 1016.6
20260508001319 67 260 3.0 6.0 0.00 0.00 0.00 73 1016.6
20260508000815 67 108 2.0 7.0 0.00 0.00 0.00 73 1016.3
20260508000312 67 308 3.0 6.0 0.00 0.00 0.00 74 1016.3
20260507235808 67 270 1.0 3.0 0.00 0.00 0.00 74 1016.6
20260507235307 66 293 3.0 7.0 0.00 0.00 0.00 74 1016.6
20260507234803 66 253 4.0 7.0 0.00 0.00 0.00 75 1016.6
20260507234259 66 252 3.0 7.0 0.00 0.00 0.00 76 1016.6
20260507233755 67 274 4.0 7.0 0.00 0.00 0.00 75 1017.0
20260507233253 66 254 4.0 7.0 0.00 0.00 0.00 76 1016.6
20260507232751 66 298 1.0 7.0 0.00 0.00 0.00 76 1016.6
20260507232247 66 253 1.0 3.0 0.00 0.00 0.00 78 1016.6
20260507231744 66 314 2.0 8.0 0.00 0.00 0.00 77 1016.6
20260507231241 66 121 2.0 8.0 0.00 0.00 0.00 77 1016.3
20260507230737 67 35 2.0 3.0 0.00 0.00 0.00 77 1016.6
20260507230235 67 329 1.0 7.0 0.00 0.00 0.00 78 1017.0
20260507225734 67 262 4.0 6.0 0.00 0.00 0.00 76 1017.0
20260507225231 68 246 5.0 7.0 0.00 0.00 0.00 75 1016.6
20260507224727 69 207 2.0 4.0 0.00 0.00 0.00 73 1016.6
20260507224224 68 206 4.0 6.0 0.00 0.00 0.00 74 1017.0
20260507223720 68 147 4.0 7.0 0.00 0.00 0.00 74 1017.0
20260507223217 68 276 3.0 9.0 0.00 0.00 0.00 74 1017.0
20260507222713 68 282 2.0 7.0 0.00 0.00 0.00 74 1016.6